Location: Unspecified
(0.0000°N, 0.0000°E)
Time: 01:16:01
(UTC+00:00)

Vanguard 1 Rocket - Pass Details

Date: 09 December 2017
Orbit: 652 x 4225 km, 34.3° (Epoch: 18 July)

Event Time Altitude Azimuth Distance (km) Brightness Sun altitude
Rises 23:51:52 0° 316° (NW) 7,896 - -67.2°
Reaches altitude 10° 23:57:29 10° 322° (NW) 7,147 - -67.2°
Maximum altitude 00:22:22 49° 32° (NNE) 4,726 - -66.0°
Exits shadow 00:33:49 32° 84° (E) 4,968 10.9 -65.0°
Drops below altitude 10° 00:41:55 10° 102° (ESE) 5,881 11.6 -64.2°
Sets 00:45:49 0° 107° (ESE) 6,498 12.0 -63.7°
